User: anonymous   Login
Location: Ostrava
(49.8330°N, 18.2830°E)
Time: 23:55:11
(UTC+02:00)
Language:

Cosmos 1400 Rocket - Orbit

View from above orbital plane
View from above orbital plane
View from above satellite
View from above satellite

Ground track
Ground track

The orbit data is extracted from the following two-line orbital elements,

1 13403U 82079B   16237.88392110 -.00000030 +00000-0 -36137-5 0  9998
2 13403 081.1666 248.6463 0034540 171.8639 188.3152 15.06280914851890
Epoch (UTC): 24 August 2016 21:12:50
Eccentricity: 0.0034540
inclination: 81.1666°
perigee height: 523 km
apogee height: 571 km
right ascension of ascending node: 248.6463°
argument of perigee: 171.8639°
revolutions per day: 15.06280914
mean anomaly at epoch: 188.3152°
orbit number at epoch: 85189

The dashed part of the orbit path shows where the satellite is in the earth's shadow,  

DLR